DW1693 Weather Reports


Display with metric or nautical units.
time (UTC)temp
F
wind
direction
speed
MPH
gust
MPH
rain 1hr
in
rain 24hr
in
rain mn
in
humidity
%
barometer
mb
20200715050538 62 42 0.0 0.0 0.00 0.00 0.00 52 1020.0
20200715043538 64 53 0.0 0.0 0.00 0.00 0.00 51 1019.8
20200715041538 65 43 0.0 3.0 0.00 0.00 0.00 48 1019.7
20200715040537 65 34 0.0 3.0 0.00 0.00 0.00 47 1019.8
20200715033537 68 61 0.0 2.0 0.00 0.00 0.00 42 1019.5
20200715031537 71 46 0.0 3.0 0.00 0.00 0.00 42 1019.6
20200715030537 71 342 1.0 3.0 0.00 0.00 0.00 42 1019.5
20200715025537 72 325 1.0 3.0 0.00 0.00 0.00 42 1019.5
20200715024538 72 333 1.0 3.0 0.00 0.00 0.00 41 1019.5
20200715022537 73 18 0.0 3.0 0.00 0.00 0.00 39 1019.7
20200715020537 73 51 1.0 3.0 0.00 0.00 0.00 38 1019.6
20200715011536 75 28 0.0 3.0 0.00 0.00 0.00 35 1019.9
20200715004536 76 355 0.0 3.0 0.00 0.00 0.00 32 1020.0
20200715003536 76 38 2.0 3.0 0.00 0.00 0.00 30 1020.0
20200715002536 77 26 0.0 3.0 0.00 0.00 0.00 30 1020.0
20200715001536 77 98 1.0 3.0 0.00 0.00 0.00 28 1020.0
20200715000536 79 17 0.0 0.0 0.00 0.00 0.00 27 1020.0
20200714234536 78 268 0.0 3.0 0.00 0.00 0.00 30 1020.1
20200714232536 78 43 1.0 3.0 0.00 0.00 0.00 28 1020.3
20200714231536 78 302 1.0 3.0 0.00 0.00 0.00 29 1020.3
20200714230536 78 49 0.0 2.0 0.00 0.00 0.00 29 1020.4
20200714225536 78 29 0.0 3.0 0.00 0.00 0.00 29 1020.6
20200714222536 77 22 2.0 6.0 0.00 0.00 0.00 30 1020.9
20200714221536 77 67 3.0 3.0 0.00 0.00 0.00 33 1020.9
20200714211535 76 11 0.0 4.0 0.00 0.00 0.00 35 1021.0
20200714210535 76 338 1.0 3.0 0.00 0.00 0.00 35 1021.1
20200714205535 76 5 2.0 3.0 0.00 0.00 0.00 39 1021.1
20200714203535 76 295 2.0 2.0 0.00 0.00 0.00 39 1021.2
20200714201535 75 109 0.0 2.0 0.00 0.00 0.00 42 1021.1
20200714195535 73 88 2.0 4.0 0.00 0.00 0.00 42 1021.3
20200714194534 73 303 1.0 3.0 0.00 0.00 0.00 42 1021.3
20200714193534 72 346 0.0 3.0 0.00 0.00 0.00 41 1021.2
20200714192534 72 10 0.0 3.0 0.00 0.00 0.00 42 1021.4
20200714185534 71 327 0.0 3.0 0.00 0.00 0.00 42 1021.5
20200714184534 71 80 0.0 3.0 0.00 0.00 0.00 42 1021.5
20200714183534 71 39 0.0 3.0 0.00 0.00 0.00 44 1021.5
20200714182534 70 326 0.0 3.0 0.00 0.00 0.00 47 1021.4
20200714181534 70 321 0.0 3.0 0.00 0.00 0.00 46 1021.3
20200714180534 69 126 0.0 0.0 0.00 0.00 0.00 59 1021.3
20200714175534 68 49 0.0 3.0 0.00 0.00 0.00 62 1021.3
20200714171533 65 58 3.0 3.0 0.00 0.00 0.00 64 1021.3
20200714170533 65 271 0.0 0.0 0.00 0.00 0.00 67 1021.4
20200714165533 64 5 2.0 3.0 0.00 0.00 0.00 67 1021.3
20200714164533 63 39 0.0 3.0 0.00 0.00 0.00 70 1021.3
20200714161534 61 65 1.0 3.0 0.00 0.00 0.00 71 1021.4
20200714160533 60 320 0.0 2.0 0.00 0.00 0.00 73 1021.2
20200714154533 59 170 0.0 2.0 0.00 0.00 0.00 73 1021.2
20200714153533 58 14 0.0 2.0 0.00 0.00 0.00 75 1021.1
20200714150533 57 148 0.0 0.0 0.00 0.00 0.00 76 1021.1
20200714145533 57 74 0.0 1.0 0.00 0.00 0.00 75 1021.1
20200714142532 58 62 0.0 1.0 0.00 0.00 0.00 76 1021.0
20200714141533 57 62 0.0 0.0 0.00 0.00 0.00 77 1021.0
20200714140533 56 62 0.0 0.0 0.00 0.00 0.00 78 1020.9
20200714134533 54 62 0.0 0.0 0.00 0.00 0.00 82 1020.7
20200714133532 52 62 0.0 0.0 0.00 0.00 0.00 87 1020.7
20200714131532 48 62 0.0 0.0 0.00 0.00 0.00 86 1020.4
20200714130532 48 62 0.0 0.0 0.00 0.00 0.00 85 1020.3
20200714123532 48 62 0.0 0.0 0.00 0.00 0.00 84 1020.3
20200714122532 48 62 0.0 0.0 0.00 0.00 0.00 84 1020.2
20200714120532 48 62 0.0 0.0 0.00 0.00 0.00 80 1020.0
20200714115532 48 62 0.0 0.0 0.00 0.00 0.00 80 1020.1
20200714112532 49 62 0.0 0.0 0.00 0.00 0.00 77 1019.9
20200714110532 49 62 0.0 0.0 0.00 0.00 0.00 76 1019.8
20200714104532 50 62 0.0 0.0 0.00 0.00 0.00 75 1019.7
20200714103532 50 62 0.0 0.0 0.00 0.00 0.00 74 1019.7
20200714102531 50 62 0.0 0.0 0.00 0.00 0.00 73 1019.8
20200714101531 50 62 0.0 0.0 0.00 0.00 0.00 73 1019.7
20200714100531 50 62 0.0 0.0 0.00 0.00 0.00 72 1019.8
20200714094531 51 62 0.0 0.0 0.00 0.00 0.00 73 1019.8
20200714092531 51 62 0.0 0.0 0.00 0.00 0.00 72 1019.8
20200714084531 52 62 0.0 0.0 0.00 0.00 0.00 70 1019.9
20200714083531 52 62 0.0 0.0 0.00 0.00 0.00 69 1019.8
20200714082531 52 62 0.0 0.0 0.00 0.00 0.00 69 1019.8
20200714081531 53 62 0.0 0.0 0.00 0.00 0.00 69 1019.8
20200714072531 54 62 0.0 0.0 0.00 0.00 0.00 66 1019.6
20200714070530 55 62 0.0 0.0 0.00 0.00 0.00 65 1019.7
20200714065530 55 61 0.0 1.0 0.00 0.00 0.00 65 1019.5
20200714064530 55 61 0.0 1.0 0.00 0.00 0.00 64 1019.4
20200714062530 56 61 0.0 2.0 0.00 0.00 0.00 63 1019.4
20200714061530 56 42 0.0 1.0 0.00 0.00 0.00 62 1019.3
20200714055530 57 178 0.0 1.0 0.00 0.00 0.00 61 1019.3
20200714052530 58 42 0.0 1.0 0.00 0.00 0.00 60 1019.2
20200714051530 58 42 0.0 1.0 0.00 0.00 0.00 58 1019.2